Scappoose, OR

5:54 PM PST on January 19, 2018 (GMT -0800)
Scappoose Industrial

Weather History for KSPB - November, 2012

Change the Weather History Date:

Friday, November 2, 2012

  Actual Average Record
Temperature  
Mean Temperature 52 °F -  
Max Temperature 57 °F - 66 °F (2010)
Min Temperature 48 °F - -1 °F (2010)
Degree Days  
Heating Degree Days 12    
Month to date heating degree days 20  
Since 1 July heating degree days 546  
Cooling Degree Days 0    
Month to date cooling degree days 0  
Year to date cooling degree days 245  
Growing Degree Days 2 (Base 50)    
Moisture  
Dew Point 50 °F    
Average Humidity 90    
Maximum Humidity 100    
Minimum Humidity 80    
Precipitation  
Precipitation 0.25 in - 1.44 in (2006)
Month to date precipitation 0.43  
Year to date precipitation 37.39  
Sea Level Pressure  
Sea Level Pressure 30.02 in    
Wind  
Wind Speed 1 mph (South)    
Max Wind Speed 6 mph    
Max Gust Speed 7 mph    
Visibility 6 miles    
Events Fog , Rain    
T = Trace of Precipitation, MM = Missing Value Source: NWS Daily Summary

Daily Weather History Graph

Daily Weather History Graph

Search for Another Location

Airport or City:

Trip Planner

Search our weather history database for the weather conditions in past years. The results will help you decide how hot, cold, wet, or windy it might be!

Date:

Astronomy

Nov. 02, 2012 Rise Set
Actual Time 7:53 AM PDT 5:55 PM PDT
Civil Twilight 7:22 AM PDT 6:26 PM PDT
Nautical Twilight 6:47 AM PDT 7:02 PM PDT
Astronomical Twilight 6:12 AM PDT 7:36 PM PDT
Moon 8:41 PM PDT (11/2) 11:24 AM PDT (11/2)
Length of Visible Light 11h 04m
Length of Day
10h 01m
Waning Gibbous, 86% of the Moon is Illuminated
Nov 2
Waning Gibbous
Nov 6
Last Quarter
Nov 13
New
Nov 20
First Quarter
Nov 28
Full

Hourly Weather History & Observations

Time (PDT) Temp. Dew Point Humidity Pressure Visibility Wind Dir Wind Speed Gust Speed Precip Events Conditions
12:04 AM 53.6 °F 51.8 °F 94% 30.03 in 10.0 mi Calm Calm - N/A   Overcast
12:53 AM 52.0 °F 50.0 °F 93% 30.03 in 10.0 mi Calm Calm - N/A   Mostly Cloudy
1:10 AM 51.8 °F 50.0 °F 94% 30.03 in 9.0 mi Calm Calm - N/A   Mostly Cloudy
1:53 AM 53.1 °F 51.1 °F 93% 30.04 in 10.0 mi Calm Calm - N/A   Overcast
2:51 AM 51.8 °F 51.8 °F 100% 30.04 in 10.0 mi Calm Calm - N/A   Overcast
2:53 AM 52.0 °F 50.0 °F 93% 30.05 in 10.0 mi Calm Calm - N/A   Overcast
3:00 AM 51.8 °F 50.0 °F 94% 30.05 in 8.0 mi Calm Calm - N/A   Mostly Cloudy
3:11 AM 51.8 °F 50.0 °F 94% 30.05 in 1.8 mi Calm Calm - N/A   Scattered Clouds
3:33 AM 51.8 °F 50.0 °F 94% 30.04 in 2.5 mi Calm Calm - N/A   Mostly Cloudy
3:41 AM 50.0 °F 48.2 °F 94% 30.04 in 7.0 mi Calm Calm - N/A   Mostly Cloudy
3:53 AM 51.1 °F 48.9 °F 92% 30.04 in 6.0 mi Calm Calm - N/A   Scattered Clouds
4:10 AM 50.0 °F 48.2 °F 94% 30.04 in 0.8 mi Calm Calm - N/A   Scattered Clouds
4:31 AM 50.0 °F 48.2 °F 94% 30.03 in 0.5 mi Calm Calm - N/A Fog Fog
4:38 AM 50.0 °F 48.2 °F 94% 30.03 in 0.8 mi Calm Calm - N/A   Mist
4:53 AM 48.9 °F 48.0 °F 97% 30.04 in 0.5 mi Calm Calm - N/A Fog Fog
5:31 AM 48.2 °F 48.2 °F 100% 30.03 in 1.0 mi Calm Calm - N/A   Overcast
5:41 AM 48.2 °F 48.2 °F 100% 30.03 in 2.0 mi Calm Calm - N/A   Overcast
5:51 AM 50.0 °F 48.2 °F 94% 30.03 in 4.0 mi Calm Calm - N/A   Overcast
5:53 AM 50.0 °F 48.9 °F 96% 30.03 in 5.0 mi Calm Calm - N/A   Overcast
6:02 AM 50.0 °F 48.2 °F 94% 30.02 in 2.5 mi Calm Calm - N/A   Overcast
6:08 AM 50.0 °F 48.2 °F 94% 30.02 in 0.8 mi Calm Calm - N/A   Overcast
6:22 AM 48.2 °F 48.2 °F 100% 30.02 in 0.5 mi Calm Calm - N/A Fog Fog
6:30 AM 48.2 °F 46.4 °F 93% 30.02 in 0.2 mi Calm Calm - N/A Fog Fog
6:43 AM 48.2 °F 48.2 °F 100% 30.01 in 0.5 mi Calm Calm - N/A Fog Fog
6:53 AM 48.9 °F 48.0 °F 97% 30.01 in 1.5 mi Calm Calm - N/A   Overcast
7:07 AM 48.2 °F 48.2 °F 100% 30.01 in 1.5 mi Calm Calm - N/A   Overcast
7:20 AM 48.2 °F 48.2 °F 100% 30.02 in 3.0 mi Calm Calm - N/A   Overcast
7:36 AM 48.2 °F 48.2 °F 100% 30.01 in 7.0 mi Calm Calm - N/A   Mostly Cloudy
7:50 AM 48.2 °F 46.4 °F 93% 30.02 in 1.8 mi Calm Calm - N/A   Mostly Cloudy
7:53 AM 48.9 °F 46.9 °F 93% 30.02 in 1.5 mi Calm Calm - N/A   Mostly Cloudy
8:00 AM 48.2 °F 48.2 °F 100% 30.02 in 2.0 mi Calm Calm - N/A   Mostly Cloudy
8:10 AM 48.2 °F 48.2 °F 100% 30.01 in 5.0 mi Calm Calm - N/A   Mostly Cloudy
8:38 AM 50.0 °F 48.2 °F 94% 30.02 in 9.0 mi Calm Calm - N/A   Scattered Clouds
8:53 AM 51.1 °F 50.0 °F 96% 30.02 in 6.0 mi Calm Calm - N/A   Clear
9:38 AM 51.8 °F 51.8 °F 100% 30.03 in 10.0 mi Calm Calm - N/A   Mostly Cloudy
9:53 AM 53.1 °F 50.0 °F 89% 30.03 in 10.0 mi Calm Calm - N/A   Mostly Cloudy
10:07 AM 53.6 °F 50.0 °F 88% 30.03 in 10.0 mi Calm Calm - N/A   Mostly Cloudy
10:53 AM 54.0 °F 50.0 °F 86% 30.03 in 10.0 mi Calm Calm - N/A   Overcast
11:53 AM 55.0 °F 50.0 °F 83% 30.02 in 10.0 mi Calm Calm - N/A   Overcast
12:53 PM 55.0 °F 51.1 °F 86% 30.01 in 10.0 mi Calm Calm - N/A   Overcast
1:53 PM 57.0 °F 51.1 °F 81% 29.99 in 10.0 mi Calm Calm - N/A   Overcast
2:53 PM 55.9 °F 52.0 °F 87% 29.99 in 8.0 mi Calm Calm - 0.03 in Rain Light Rain
3:53 PM 55.0 °F 53.1 °F 93% 30.00 in 8.0 mi Calm Calm - 0.04 in Rain Light Rain
4:53 PM 55.0 °F 53.1 °F 93% 29.98 in 10.0 mi Calm Calm - 0.01 in   Overcast
5:53 PM 54.0 °F 53.1 °F 97% 29.98 in 7.0 mi SSW 3.5 mph - 0.00 in Rain Light Rain
6:53 PM 54.0 °F 52.0 °F 93% 29.99 in 10.0 mi South 3.5 mph - 0.01 in   Overcast
7:53 PM 52.0 °F 51.1 °F 97% 29.99 in 10.0 mi East 4.6 mph - 0.02 in Rain Light Rain
8:53 PM 53.1 °F 51.1 °F 93% 29.99 in 10.0 mi Calm Calm - 0.05 in   Overcast
9:53 PM 53.1 °F 51.1 °F 93% 30.00 in 4.0 mi Calm Calm - 0.01 in Rain Light Rain
10:19 PM 53.6 °F 51.8 °F 94% 30.00 in 10.0 mi Calm Calm - 0.00 in Rain Light Rain
10:53 PM 52.0 °F 51.1 °F 97% 30.00 in 6.0 mi Calm Calm - 0.00 in   Overcast
11:30 PM 51.8 °F 51.8 °F 100% 30.00 in 7.0 mi Calm Calm - 0.01 in   Overcast
11:35 PM 51.8 °F 51.8 °F 100% 30.00 in 8.0 mi Calm Calm - 0.01 in   Overcast
11:53 PM 53.1 °F 51.1 °F 93% 30.00 in 8.0 mi Calm Calm - 0.01 in Rain Light Rain